Location: Eastlake (historical)
(39.0077°N, 122.6678°W)
Time: 09:23:16
(UTC+00:00)

Delta 2 Rocket - Pass Details

Date: 25 November 2020
Orbit: 415 x 804 km, 35.6° (Epoch: 25 January)

Event Time Altitude Azimuth Distance (km) Brightness Sun altitude
Exits shadow 12:40:50 44° 154° (SSE) 894 4.5 -27.6°
Drops below altitude 10° 12:44:20 10° 115° (ESE) 1,948 7.0 -27.0°
Sets 12:46:33 0° 110° (ESE) 2,781 8.1 -26.5°
